Location: Dehesa de la Cepeda
(40.6574°N, 4.3013°W)
Time: 21:19:20
(UTC+00:00)

Vanguard 2 Rocket - Pass Details

Date: 09 August 2021
Orbit: 556 x 3324 km, 32.9° (Epoch: 19 September)

Event Time Altitude Azimuth Distance (km) Brightness Sun altitude
Rises 02:12:09 0° 203° (SSW) 5,714 - -28.1°
Reaches altitude 10° 02:19:08 10° 181° (S) 3,981 - -27.4°
Maximum altitude 02:23:04 13° 157° (SSE) 3,310 - -27.0°
Exits shadow 02:24:25 12° 147° (SSE) 3,193 9.4 -26.9°
Drops below altitude 10° 02:26:20 10° 133° (SE) 3,162 9.6 -26.7°
Sets 02:30:29 0° 105° (ESE) 3,649 10.2 -26.2°
